Location: Dover
(39.1580°N, 75.5250°W)
Time: 18:25:13
(UTC-04:00)

Daily predictions for brighter satellites

Satellite Brightness Start Highest point End
(mag) Time Altitude Azimuth Time Altitude Azimuth Time Altitude Azimuth
Cosmos 1553 Rocket 4.4 20:53:35 10° N 20:59:57 74° W 21:06:12 10° S
Cosmos 1328 Rocket 4.5 20:58:59 10° NNW 21:03:18 52° W 21:07:35 10° S
H-2A R/B 2.6 21:00:32 10° SE 21:04:52 46° ENE 21:09:11 10° N
SPOT 5 3.9 21:01:37 10° SE 21:05:39 30° ENE 21:09:54 10° N
USA 186 3.0 21:06:10 10° SSW 21:08:11 27° W 21:10:17 10° NW
CZ-4 DEB 3.4 21:05:01 10° S 21:08:11 58° W 21:11:22 10° NNW
Cosmos 2333 Rocket 3.9 21:04:22 10° N 21:08:32 20° NE 21:12:41 10° E
Cosmos 2315 Rocket 4.4 21:04:07 10° N 21:10:05 47° ENE 21:16:01 10° SSE
Cosmos 2297 Rocket 4.0 21:11:02 10° ESE 21:13:13 12° E 21:15:24 10° ENE
H-2A R/B 4.2 21:12:10 10° SSW 21:15:43 37° W 21:19:15 10° NNW
Cosmos 2219 Rocket 3.4 21:11:47 10° N 21:16:34 28° ENE 21:21:20 10° ESE
Hubble Space Telescope 2.7 21:15:34 10° SSW 21:17:39 14° SSE 21:19:33 11° SE
OTV 4 1.2 21:17:40 10° SW 21:20:22 31° SSE 21:23:03 10° E
COSMOS 2428 2.9 21:15:18 10° NNW 21:20:55 60° ENE 21:26:23 11° SE
Cosmos 1726 3.4 21:18:29 10° NNE 21:21:44 26° ENE 21:24:31 12° SE
DELTA 2 R/B (1) 4.3 21:20:03 10° W 21:25:12 39° SSW 21:29:53 12° SE
Cosmos 1680 Rocket 3.8 21:22:52 10° NNW 21:28:05 68° WSW 21:33:19 10° S
Cosmos 1437 Rocket 4.4 21:25:41 10° NNW 21:29:10 34° W 21:32:40 10° SSW
Cosmos 2058 2.9 21:26:13 10° S 21:30:16 64° E 21:34:20 10° NNE
Meteor 1-4 Rocket 4.0 21:27:20 10° NNE 21:30:24 24° ENE 21:32:35 14° ESE
Cosmos 2151 3.2 21:26:55 10° SSW 21:31:06 72° W 21:35:19 10° N
NOSS 3-1 (A) 3.3 21:31:05 10° SSW 21:36:55 80° ESE 21:43:22 10° NE
Terra 3.9 21:36:21 10° E 21:38:15 12° ENE 21:40:08 10° NE
Cosmos 1898 Rocket 3.5 21:33:10 10° S 21:38:16 65° ESE 21:43:27 10° NNE
H-2A R/B 4.0 21:34:57 10° E 21:38:18 17° ENE 21:41:41 10° NNE
Cosmos 2237 4.3 21:36:40 10° NNW 21:42:26 86° WSW 21:47:32 13° SSE
Delta 2 Rocket 3.5 21:39:24 10° W 21:42:58 41° S 21:44:57 20° SE
MetOp-B 4.2 21:42:05 14° SSE 21:46:39 63° ENE 21:51:57 10° N
Cosmos 1939 Rocket 3.4 21:43:05 10° S 21:46:56 56° W 21:50:46 10° NNW
Cosmos 2219 4.1 21:43:05 10° SW 21:48:42 54° WNW 21:54:20 10° NNE
Tiangong 1 1.9 21:46:24 10° W 21:49:26 50° NNW 21:52:28 10° ENE
SPOT 1/Viking Rocket 4.0 21:46:52 17° SE 21:50:34 47° ENE 21:55:30 10° N
Cosmos 2237 Rocket 3.1 21:47:31 10° N 21:52:46 36° ENE 21:56:27 18° ESE
Cosmos 2150 Rocket 4.1 21:48:58 10° SSW 21:54:26 88° WNW 21:59:55 10° NNE
OAO 2 Rocket 3.6 21:49:36 10° WSW 21:54:46 53° S 21:59:04 15° E
CZ-4 SHROUD 3.2 21:55:57 21° S 21:57:56 78° WSW 22:01:05 10° NNW
Cosmos 2333 4.2 21:52:17 10° NNW 21:58:03 86° WSW 22:02:25 18° SSE
Cosmos 2082 4.0 21:52:47 10° S 21:58:12 45° ESE 22:03:37 10° NE
ATLAS 2AS CENTAUR R/B 3.2 21:52:03 10° S 21:59:03 49° ESE 22:06:37 10° NE
Sich 1 3.0 21:54:39 10° S 21:59:04 82° E 22:03:28 10° N
Cosmos 2360 Rocket 3.8 21:56:40 10° NW 22:01:26 29° WSW 22:06:13 10° SSW
Cosmos 1626 3.3 22:02:07 24° ESE 22:02:54 26° E 22:06:03 10° NNE
Cosmos 1271 Rocket 2.8 21:59:44 10° N 22:03:34 60° E 22:05:31 27° SSE
NOAA 11 4.4 22:03:22 22° SE 22:06:49 54° ENE 22:12:08 10° N
Cosmos 1633 Rocket 3.0 22:02:35 11° S 22:06:53 86° W 22:11:16 10° N
YAOGAN 6 2.5 22:04:58 25° SSE 22:06:57 84° ENE 22:10:33 10° N
Iridium 2 4.1 22:05:33 28° SE 22:07:10 45° E 22:10:51 10° NNE
ATLAS 3B R/B 3.8 22:02:19 10° NNW 22:08:37 34° NE 22:13:27 15° ESE
ERBS 2.7 22:05:20 10° SW 22:08:48 68° NW 22:12:17 10° NE
Envisat 4.0 22:08:34 10° S 22:13:23 43° W 22:18:13 10° NNW
Cosmos 2242 Rocket 3.6 22:09:56 10° N 22:14:28 86° E 22:17:06 25° S
CZ-4 R/B 3.9 22:10:57 10° NNE 22:15:49 61° ESE 22:18:51 22° S
CZ-4C R/B 3.9 22:16:15 29° E 22:17:01 33° ENE 22:20:10 10° N
Cosmos 1703 3.1 22:14:44 22° S 22:17:11 86° E 22:21:06 10° N
SL-14 R/B 4.3 22:14:58 10° SSW 22:18:48 46° W 22:22:41 10° N
USA 245 1.9 22:21:00 79° W 22:21:00 79° W 22:23:15 10° NNW
USA 32 4.1 22:24:01 10° N 22:29:18 81° W 22:32:30 24° S
Cosmos 2227 Rocket 2.1 22:24:20 10° SSW 22:29:59 88° ESE 22:35:41 10° NNE
Cosmos 1937 Rocket 4.1 22:27:14 10° SSW 22:32:21 56° WNW 22:37:29 10° N
DMSP B5D2-2 4.4 22:32:58 10° NNE 22:37:59 45° E 22:39:27 36° SE
Cosmos 990 Rocket 4.2 22:33:06 10° SSW 22:38:12 70° WNW 22:43:21 10° NNE
DELTA 2 DEB (DPAF) 4.1 22:41:00 42° SSE 22:42:30 81° ENE 22:47:00 10° N
ARGOS 3.5 22:44:45 27° S 22:47:39 61° WSW 22:53:00 10° NNW
SL-16 R/B 2.8 22:43:07 10° N 22:48:35 45° ENE 22:50:40 32° ESE
H-2A R/B 4.4 22:44:54 10° SW 22:50:02 43° SSE 23:21:55 10° E
Cosmos 2333 Rocket 2.5 22:47:35 10° NNW 22:53:16 63° WSW 22:55:43 34° S
Cosmos 1455 2.3 22:51:22 10° NNW 22:55:10 68° W 22:55:49 55° SSW
Cosmos 2297 Rocket 2.2 22:51:53 16° SSW 22:56:27 81° WNW 23:02:09 10° NNE
OTV 4 2.4 22:53:34 10° W 22:54:46 21° WSW 22:54:46 21° WSW
Landsat 7 3.9 22:57:59 43° S 22:59:29 73° WSW 23:04:15 10° NNW
Cosmos 2219 Rocket 3.1 22:55:25 10° NW 23:00:35 40° WSW 23:03:07 26° SSW
NOSS 2-3 (C) 4.0 23:00:19 50° SSE 23:01:04 56° ESE 23:06:25 10° NE
Cosmos 44 Rocket 3.5 23:04:45 52° SSE 23:05:28 57° ESE 23:10:36 10° NE
Cosmos 1703 Rocket 3.7 23:03:44 10° N 23:08:02 55° E 23:08:18 54° E
Lacrosse 4 Rocket 1.6 23:03:56 10° NNW 23:08:22 64° ENE 23:08:55 58° E
Nadezhda 1 Rocket 4.4 23:03:12 10° NNW 23:09:08 56° W 23:12:17 28° SSW
Cosmos 1269 Rocket 3.9 23:05:58 10° NNW 23:11:18 82° ENE 23:12:32 54° SSE
Cosmos 1933 3.3 23:09:37 10° N 23:13:42 72° E 23:13:42 72° E
Terra 1.9 23:14:22 54° SSW 23:15:21 72° WSW 23:20:07 10° NNW
H-2A R/B 2.3 23:15:25 43° SSW 23:17:06 65° WSW 23:22:32 10° NNW
COSMOS 2455 2.8 23:14:09 10° NNW 23:20:12 88° WSW 23:21:50 51° SSE
NOSS 2-3 (D) 3.8 23:21:10 54° SSW 23:22:18 82° ESE 23:27:50 10° NE
Cosmos 1125 Rocket 3.9 23:23:43 31° SW 23:26:14 62° WNW 23:31:31 10° NNE
Tiangong 1 2.8 23:23:20 10° WNW 23:25:23 32° NW 23:25:23 32° NW
Cosmos 2074 Rocket 4.3 23:25:48 43° ESE 23:26:55 47° E 23:32:55 10° NNE
Cosmos 1048 Rocket 3.9 23:22:05 10° NNW 23:27:29 89° WSW 23:28:25 63° SSE
Cosmos 158 Rocket 4.4 23:24:52 10° N 23:29:58 48° ENE 23:30:39 45° E
Spot 4 3.9 23:29:25 58° SSW 23:30:07 66° WSW 23:34:59 10° NNW
Cosmos 1709 Rocket 4.1 23:27:42 37° SSW 23:30:14 70° W 23:36:20 10° N
Cosmos 2221 Rocket 3.5 23:26:47 10° N 23:31:21 84° W 23:31:33 81° SSW
Cosmos 2237 Rocket 3.4 23:31:46 10° NW 23:36:41 31° WSW 23:38:17 26° SW
Cosmos 372 Rocket 3.9 23:36:14 60° SSW 23:37:13 85° WNW 23:42:29 10° NNE
Cosmos 389 Rocket 3.5 23:35:39 10° N 23:38:11 43° N 23:38:11 43° N
OAO 2 Rocket 4.1 23:34:13 10° W 23:38:02 40° SW 23:38:02 40° SW
Meteor 1-26 Rocket 4.1 23:39:52 10° N 23:45:33 90° WSW 23:46:26 66° S
Cosmos 1892 4.4 23:49:55 25° NE 23:49:55 25° NE 23:51:56 10° NNE
ATLAS 2AS CENTAUR R/B 4.1 23:43:05 10° WSW 23:50:12 42° NW 23:57:48 10° NNE
H-2A R/B 4.1 23:49:18 10° NE 23:51:49 25° ENE 23:51:49 25° ENE
